"Pseudo-MPEC" for P1130pX

Created 2020 Aug 6 7:07:09 UT using Find_Orb

Click here for an explanation of pseudo-MPECs

 
 Astrometry: 
     P1130pX  C2020 07 218U5+,ob/Sf`5rOn,$Z@4#VfgckAstrometryr9;eredacted;o*pF51
     P1130pX  C2020 07 21UyXdSxKBKT6Ca:#[(ZclickknGk1mJhere.)slyNl1mydrA5LW2gF51
     P1130pX  C2020 07 21Ki#-JfornUq:fdXjLa?:Fe%mdiexplanatione+Xlj3AZ6N^_]UyF51

Station data:
(F51) Pan-STARRS 1, Haleakala  (N20.707235 W156.255910)  US/Hawaii.
   Observers N. Primak, A. Schultz, S. Watters, J. Thiel, T. Goggia. Measurer
   PS1 Science Consortium. 1.8-m Ritchey-Chrétien + CCD.

Orbital elements:  P1130pX
   Perihelion 2022 Jan 18.842808 +/- 394 TT = 20:13:38 (JD 2459598.342808)
Epoch 2020 Jul 21.0 TT = JDT 2459051.5   Earth MOID: 0.8574   AutoNEOCP
M 262.24455776 +/- 100              (J2000 ecliptic)
n   0.17876333 +/- 0.373            Peri.  203.71925 +/- 60
a   3.12092804 +/- 4.34             Node   171.62855 +/- 55
e   0.4108114 +/- 0.203             Incl.   27.82591 +/- 29
P   5.51                   H 16.5   G  0.15   U 12.1  SR
q 1.83881513 +/- 1.78    Q 4.40304095 +/- 56.8
From 3 observations 2020 July 21 (34.1 min); mean residual 0".02
Residuals in arcseconds: 
200721 F51  .01-  .02-    200721 F51  .03+  .04+    200721 F51  .01-  .02-    

Ephemerides (geocentric):
Date (UTC) HH   RA              Dec         delta   r     elong  mag " sig PA
---- -- -- --  -------------   -----------  ------ ------ -----  --- ---- ---
2020 08 06 07  14 59 21.368   +10 15 18.12  3.6203 3.6830  85.5 23.0 1535  22
2020 08 06 08  14 59 22.278   +10 15 01.19  3.6207 3.6829  85.5 23.0 1541  22
2020 08 06 09  14 59 23.189   +10 14 44.25  3.6211 3.6828  85.5 23.0 1548  22
2020 08 06 10  14 59 24.103   +10 14 27.31  3.6216 3.6826  85.5 23.0 1554  22
2020 08 06 11  14 59 25.018   +10 14 10.37  3.6220 3.6825  85.4 23.0 1561  22
2020 08 06 12  14 59 25.934   +10 13 53.42  3.6224 3.6824  85.4 23.0 1568  22
2020 08 06 13  14 59 26.852   +10 13 36.47  3.6229 3.6822  85.4 23.0 1574  22
2020 08 06 14  14 59 27.771   +10 13 19.51  3.6233 3.6821  85.3 23.0 1581  22
2020 08 06 15  14 59 28.692   +10 13 02.55  3.6237 3.6820  85.3 23.0 1588  22
2020 08 06 16  14 59 29.615   +10 12 45.59  3.6241 3.6819  85.3 23.0 1594  23
2020 08 06 17  14 59 30.539   +10 12 28.62  3.6246 3.6817  85.2 23.0 1601  23
2020 08 06 18  14 59 31.465   +10 12 11.65  3.6250 3.6816  85.2 23.0 1608  23
2020 08 06 19  14 59 32.392   +10 11 54.68  3.6254 3.6815  85.2 23.0 1614  23
2020 08 06 20  14 59 33.321   +10 11 37.70  3.6258 3.6814  85.1 23.0 1621  23
2020 08 06 21  14 59 34.251   +10 11 20.71  3.6263 3.6812  85.1 23.0 1628  23
2020 08 06 22  14 59 35.183   +10 11 03.73  3.6267 3.6811  85.1 23.0 1635  23
2020 08 06 23  14 59 36.117   +10 10 46.74  3.6271 3.6810  85.0 23.0 1642  23
2020 08 07 00  14 59 37.052   +10 10 29.74  3.6275 3.6808  85.0 23.0 1649  23
2020 08 07 01  14 59 37.988   +10 10 12.75  3.6280 3.6807  85.0 23.0 1655  23
2020 08 07 02  14 59 38.927   +10 09 55.75  3.6284 3.6806  85.0 23.0 1662  24
2020 08 07 03  14 59 39.866   +10 09 38.74  3.6288 3.6805  84.9 23.0 1669  24
2020 08 07 04  14 59 40.807   +10 09 21.73  3.6293 3.6803  84.9 23.0 1676  24
2020 08 07 05  14 59 41.750   +10 09 04.72  3.6297 3.6802  84.9 23.0 1683  24
2020 08 07 06  14 59 42.694   +10 08 47.71  3.6301 3.6801  84.8 23.0 1690  24
2020 08 07 07  14 59 43.640   +10 08 30.69  3.6305 3.6800  84.8 23.0 1697  24
2020 08 07 08  14 59 44.588   +10 08 13.66  3.6310 3.6798  84.8 23.0 1704  24
2020 08 07 09  14 59 45.537   +10 07 56.64  3.6314 3.6797  84.7 23.0 1711  24
2020 08 07 10  14 59 46.487   +10 07 39.61  3.6318 3.6796  84.7 23.0 1718  24
2020 08 07 11  14 59 47.439   +10 07 22.57  3.6322 3.6794  84.7 23.0 1725  24
2020 08 07 12  14 59 48.393   +10 07 05.53  3.6327 3.6793  84.6 23.0 1732  24
2020 08 07 13  14 59 49.348   +10 06 48.49  3.6331 3.6792  84.6 23.0 1739  24
2020 08 07 14  14 59 50.305   +10 06 31.45  3.6335 3.6791  84.6 23.0 1746  25
2020 08 07 15  14 59 51.263   +10 06 14.40  3.6339 3.6789  84.6 23.0 1753  25
2020 08 07 16  14 59 52.223   +10 05 57.35  3.6344 3.6788  84.5 23.0 1760  25
2020 08 07 17  14 59 53.184   +10 05 40.29  3.6348 3.6787  84.5 23.0 1767  25
2020 08 07 18  14 59 54.147   +10 05 23.23  3.6352 3.6786  84.5 23.0 1775  25
2020 08 07 19  14 59 55.111   +10 05 06.17  3.6356 3.6784  84.4 23.0 1782  25
2020 08 07 20  14 59 56.077   +10 04 49.10  3.6361 3.6783  84.4 23.0 1789  25
2020 08 07 21  14 59 57.045   +10 04 32.03  3.6365 3.6782  84.4 23.0 1796  25
2020 08 07 22  14 59 58.014   +10 04 14.96  3.6369 3.6780  84.3 23.0 1803  25
2020 08 07 23  14 59 58.984   +10 03 57.88  3.6374 3.6779  84.3 23.0 1811  25
2020 08 08 00  14 59 59.956   +10 03 40.80  3.6378 3.6778  84.3 23.0 1818  25
2020 08 08 01  15 00 00.930   +10 03 23.72  3.6382 3.6777  84.2 23.0 1825  25
2020 08 08 02  15 00 01.905   +10 03 06.63  3.6386 3.6775  84.2 23.0 1832  25
2020 08 08 03  15 00 02.882   +10 02 49.54  3.6391 3.6774  84.2 23.0 1840  25
2020 08 08 04  15 00 03.860   +10 02 32.44  3.6395 3.6773  84.2 23.0 1847  26
2020 08 08 05  15 00 04.840   +10 02 15.34  3.6399 3.6772  84.1 23.0 1854  26
2020 08 08 06  15 00 05.821   +10 01 58.24  3.6403 3.6770  84.1 23.0 1862  26